Overview Statistics Trail Chart Weather Telemetry Raw packets
 

This is the latest recevied weather packets stored in our database for station/object HP1CDW-11. If no packets are shown the sender has not sent any weather packets the latest 10 day(s).

<< 25 26 27 28 29 30 31 >>
Time Temp. Humidity Pressure Rain* Wind** Luminosity Snow
1788297420 31.11° C 38% 1008.7 hPa - - - -
1788296820 31.11° C 37% 1008.8 hPa - - - -
1788296220 31.11° C 36% 1008.9 hPa - - - -
1788295642 31.11° C 35% 1009 hPa - - - -
1788295019 31.11° C 35% 1009.1 hPa - - - -
1788294418 31.11° C 35% 1009 hPa - - - -
1788293818 31.11° C 35% 1008.9 hPa - - - -
1788293218 31.11° C 36% 1009 hPa - - - -
1788292618 31.11° C 36% 1009.1 hPa - - - -
1788292017 31.11° C 37% 1009.2 hPa - - - -
1788291417 31.67° C 38% 1009.3 hPa - - - -
1788290817 31.67° C 40% 1009.5 hPa - - - -
1788290216 31.67° C 41% 1009.6 hPa - - - -
1788289616 31.67° C 43% 1009.8 hPa - - - -
1788289016 31.67° C 45% 1009.9 hPa - - - -
1788288415 32.22° C 52% 1010 hPa - - - -
1788287815 32.22° C 58% 1010.3 hPa - - - -
1788287215 32.22° C 58% 1010.4 hPa - - - -
1788286614 32.22° C 58% 1010.6 hPa - - - -
1788286014 31.67° C 57% 1010.7 hPa - - - -
1788285414 32.22° C 58% 1010.9 hPa - - - -
1788284813 31.67° C 58% 1011 hPa - - - -
1788284213 31.67° C 57% 1011.1 hPa - - - -
1788283613 31.67° C 57% 1011.4 hPa - - - -
1788283012 31.67° C 58% 1011.6 hPa - - - -

* Rain since midnight (hover to see other rain measurements)
** Current wind speed in m/s (hover to see current wind gust speed)